Location: ?ern� Novina
(50.6762°N, 14.8696°E)
Time: 12:57:28
(UTC+00:00)

Cosmos 2333 Rocket - Pass Details

Date: 03 March 2021
Orbit: 837 x 864 km, 70.8° (Epoch: 16 April)

Event Time Altitude Azimuth Distance (km) Brightness Sun altitude
Rises 20:32:53 0° 240° (WSW) 3,400 5.6 -34.8°
Reaches altitude 10° 20:35:33 10° 250° (WSW) 2,473 4.9 -35.1°
Maximum altitude 20:40:41 34° 314° (NW) 1,380 3.7 -35.7°
Drops below altitude 10° 20:45:53 10° 19° (NNE) 2,501 4.9 -36.4°
Sets 20:48:36 0° 29° (NNE) 3,445 5.5 -36.7°
